Location: Madingley
(52.2167°N, 0.0500°E)
Time: 21:37:27
(UTC+00:00)

COSMOS 2428 - Pass Details

Date: 15 May 2026
Orbit: 844 x 855 km, 70.9° (Epoch: 10 June)

Event Time Altitude Azimuth Distance (km) Brightness Sun altitude
Rises 21:04:02 0° 329° (NNW) 3,428 7.9 -9.5°
Reaches altitude 10° 21:06:53 10° 341° (NNW) 2,488 6.4 -9.8°
Maximum altitude 21:11:43 28° 39° (NE) 1,564 4.2 -10.3°
Drops below altitude 10° 21:16:32 10° 97° (E) 2,472 4.7 -10.7°
Enters shadow 21:17:35 - 103° (ESE) 2,806 5.0 -10.8°
